Starlink 4001

operational
NORAD ID: 52628 Int'l Des: 2022-052 Owner: SPXS Country: US Constellation: starlink
LEOCIRCULAR

关于 Starlink 4001

正在加载描述...

实时位置

正在加载3D地球...

即将过境

高度历史

Altitude vs Time

uPlot chart will show altitude changes over time

两行轨道根数

1 52628U 22052AG 25342.35261293 .00000412 00000-0 43957-4 0 9990
2 52628 53.2190 334.1481 0001367 83.3409 276.7739 15.08835040196992
Epoch: Dec 8, 2025 • Age: 16 hours

当前状态

高度 543.0 km
速度 7.59 km/s
星下点 -11.30°S, 119.83°W
发射日期 May 14, 2022
运行时间 3.5 years
类型 internet

技术详情

分类 Payload
质量 297.00 kg
干质量 275.00 kg
总质量 297.00 kg
长度 0.20 m
直径 2.80 m
跨度 9.00 m
形状 Box + pan
制造商 SPXS
平台类型 Starlink
阶段状态 In Orbit
所有者/国家 SPXS/US

大型星座

Loading constellations...